Home > Weather > Bocholt > Past weeks

Flag for Germany Weather for the Past 2 Weeks in Bocholt, North Rhine-Westphalia, Germany

Now
46 °F

Sunny.


Feels Like: 46 °F
Forecast: 39 / 58 °F
Wind: 2 mph from North

Location: Niederrhein

Current Time: Apr 30, 2016 at 11:37:14 PM

Latest Report: Apr 30, 2016 at 10:50 PM


Visibility: 10 mi

Pressure: 30.21 "Hg

Humidity: 71%

Dew Point: 37 °F

Location of BocholtLocation

Historic Weather in Bocholt — Graph

°F

Bocholt Temperature Yesterday

Maximum temperature yesterday: 48 °F (at 9:20 AM)
Minimum temperature yesterday: 41 °F (at 5:20 AM)
Average temperature yesterday: 46 °F

High & Low Weather Summary for the Past Weeks

 TemperatureHumidityPressure
High63 °F (Apr 21, 2:50 PM)100% (Apr 18, 5:50 AM)30.48 "Hg (Apr 18, 5:50 AM)
Low32 °F (Apr 18, 5:50 AM)39% (Apr 21, 6:20 PM)29.45 "Hg (Apr 16, 4:50 AM)
Average47 °F69%29.97 "Hg
* Reported Apr 15 10:20 PM — Apr 30 10:20 PM, Bocholt, Weather by CustomWeather, © 2016

Note: Actual official high and low records may vary slightly from our data, if they occured in-between our weather recording intervals... More about our weather records

Advertising

Bocholt Weather History for the Previous 24 Hours

Scroll right to see more
 ConditionsComfort  
Time TempWeatherWind HumidityBarometerVisibility
10:20 PM
Sat, Apr 30
46 °FSunny.1 mph71%30.21 "Hg10 mi
9:50 PM48 °FSunny.No wind66%30.18 "Hg10 mi
9:20 PM48 °FSunny.2 mph62%30.18 "Hg10 mi
8:50 PM50 °FSunny.5 mph58%30.18 "Hg10 mi
8:20 PM50 °FSunny.5 mph58%30.15 "Hg10 mi
7:50 PM50 °FSunny.6 mph58%30.15 "Hg10 mi
7:20 PM52 °FSunny.6 mph54%30.12 "Hg10 mi
6:50 PM52 °FSunny.6 mph54%30.12 "Hg10 mi
6:20 PM54 °FSunny.7 mph51%30.12 "Hg10 mi
5:50 PM54 °FPassing clouds.8 mph47%30.12 "HgN/A
5:20 PM54 °FSunny.6 mph51%30.09 "Hg10 mi
4:50 PM54 °FSunny.6 mph47%30.09 "Hg10 mi
4:20 PM54 °FPassing clouds.5 mph47%30.09 "HgN/A
3:50 PM54 °FSunny.5 mph47%30.09 "Hg10 mi
3:20 PM55 °FSunny.5 mph44%30.09 "Hg10 mi
2:50 PM54 °FSunny.6 mph47%30.09 "Hg10 mi
2:20 PM54 °FScattered clouds.5 mph51%30.09 "HgN/A
1:50 PM52 °FScattered clouds.6 mph58%30.09 "HgN/A
1:20 PM52 °FScattered clouds.5 mph54%30.09 "HgN/A
12:50 PM52 °FScattered clouds.2 mph58%30.09 "HgN/A
12:20 PM50 °FPartly sunny.5 mph67%30.09 "HgN/A
11:50 AM50 °FPartly sunny.6 mph67%30.09 "HgN/A
11:20 AM48 °FPartly sunny.6 mph71%30.07 "HgN/A
10:50 AM48 °FPartly sunny.7 mph76%30.07 "HgN/A
10:20 AM46 °FPartly sunny.6 mph82%30.07 "HgN/A
9:50 AM46 °FPartly sunny.6 mph82%30.07 "HgN/A
9:20 AM45 °FPartly sunny.5 mph87%30.07 "HgN/A
8:50 AM45 °FPartly sunny.3 mph87%30.04 "HgN/A
8:20 AM45 °FScattered clouds.3 mph87%30.04 "HgN/A
7:50 AM45 °FPassing clouds.3 mph87%30.04 "HgN/A
7:20 AM43 °FLight rain. Passing clouds.5 mph93%30.04 "HgN/A
6:50 AM43 °FPassing clouds.5 mph93%30.01 "HgN/A
6:20 AM43 °FPartly cloudy.7 mph93%30.01 "HgN/A
5:50 AM43 °FLight rain. Passing clouds.6 mph93%30.01 "Hg6 mi
5:20 AM43 °FLight rain. Passing clouds.6 mph93%30.01 "HgN/A
4:50 AM43 °FLight rain. Passing clouds.6 mph93%30.01 "HgN/A
11:50 PM
Fri, Apr 29
45 °FClear.7 mph87%29.98 "Hg10 mi
11:20 PM45 °FPassing clouds.7 mph87%29.98 "HgN/A
Weather by CustomWeather, © 2016

See weather overviewHow to use our weather pages